Regional Weather Roundup
Issued by NWS Charleston, SC

Current Version | Previous Version | Graphics & Text | Print | Product List | Glossary On
Versions: 1 2 3 4 5 6 7 8 9 10 11 12 13 14 15 16 17 18 19 20 21 22 23 24 25 26 27 28 29 30 31 32 33 34 35 36 37 38 39 40 41 42 43 44 45 46 47 48 49 50
000
ASUS42 KCHS 181112
RWRCHS

Regional Weather Roundup
National Weather Service Charleston SC
600 AM EST MON DEC 18 2017

NOTE: "fair" indicates few or no clouds below 12,000 feet with no
significant weather and/or obstructions to visibility.

Not all stations are quality controlled. Use data with caution,
especially dewpoint observations.

SCZ027-030-031-034>040-042>050-181200-
...Southeast South Carolina...

CITY           SKY/WX    TMP DP  RH WIND       PRES   REMARKS
N Charleston   CLOUDY    62  57  83 SW6       30.17S
Waterfront Prk   N/A     62  59  90 CALM      30.02S
Mount Pleasant CLOUDY    61  57  88 CALM      30.17S
Johns Island   CLOUDY    63  59  88 CALM      30.17S
Pinopolis        N/A     59  57  94 S5        30.07F
Moncks Corner  CLOUDY    59  55  88 SW3       30.16S
Summerville    CLOUDY    59  55  88 S3        30.17S
Beaufort MCAS  CLOUDY    61  59  93 S3        30.16F
Beaufort Arpt  CLOUDY    59  55  88 S5        30.17S
Hilton Head Is NOT AVBL
Walterboro     DRIZZLE   57  55  94 S5        30.16F
Allendale      CLOUDY    57  54  88 CALM      30.15S

...Southern Midlands and Pee Dee...

CITY           SKY/WX    TMP DP  RH WIND       PRES   REMARKS
Georgetown     CLOUDY    54  52  94 CALM      30.18S
Kingstree      CLOUDY    52  48  87 CALM      30.16S
Orangeburg     CLOUDY    56  50  80 CALM      30.15S
Barnwell         N/A     59  54  82 CALM      30.16R
Aiken          CLOUDY    48  43  81 CALM      30.18S
Manning        CLOUDY    54  36  50 MISG      30.15S
Columbia       CLOUDY    53  43  68 CALM      30.15S
Sumter         CLOUDY    52  42  69 CALM      30.13F
Florence       PTCLDY    49  43  80 SE3       30.16S
Myrtle Beach   CLOUDY    55  53  93 S6        30.17F
N Myrtle Beach CLOUDY    53  51  93 CALM      30.16S

$$

GAZ063-065-086>088-099>101-113>116-118-119-134>141-150-181200-
...Southeast Georgia...

CITY           SKY/WX    TMP DP  RH WIND       PRES   REMARKS
Savannah Arpt  CLOUDY    56  54  93 SE5       30.17S
Hunter AAF     CLOUDY    57  54  91 CALM        N/A
Fort Stewart     N/A     53  49  89 CALM        N/A
Statesboro     LGT RAIN  58  52  81 CALM      30.16R
Sylvania       CLOUDY    57  55  91 CALM      30.16S
Claxton        CLOUDY    56  54  91 CALM      30.17R

...CSRA, Central and far Southeast Georgia...

CITY           SKY/WX    TMP DP  RH WIND       PRES   REMARKS
Thomson        CLOUDY    49  44  82 CALM      30.21R
Augusta-Bush   CLOUDY    54  43  66 CALM      30.15R
Augusta-Daniel CLOUDY    53  43  68 N3        30.16R
Swainsboro     CLOUDY    59  59 100 CALM      30.16R
Vidalia        CLOUDY    59  57  94 CALM      30.17R
Eastman        CLOUDY    60  54  79 CALM      30.19R HAZE
Hazlehurst     CLOUDY    62  60  93 CALM      30.16R
Alma           CLOUDY    59  58  96 CALM      30.18R FOG
Waycross       CLOUDY    57  54  91 CALM      30.18R
Jesup          NOT AVBL
Baxley         CLOUDY    55  55 100 S3        30.17R
Brunswick      PTCLDY    54  52  94 CALM      30.19R FOG
Saint Simons   PTCLDY    58  58 100 CALM      30.18R

$$

SCZ027-028-034-036>038-045-046-048>050-GAZ119-141-181200-
...Lake and Supplemental Coastal Observations...

STATION/POSITION TIME  TEMP    WIND        PRES    WAVE   SWELL
                       AIR SEA DIR/SP/G            HT/PER HT/PER/DIR
                 (UTC) (F)     (DEG/KT/KT) (MB)    (FT/S) (FT/S/D)
Winyah Bay       NOT AVBL
Lake Murray      1020   51        CALM     1020.3S
ACE Basin NERRS  0945   57        CALM     1021.0
Fort Pulaski     1042   57 54  120/  2/  2 1022.0R
Sapelo Island    1000   59     160/  4     1021.0

$$

ANZ835-935-AMZ111-154-330-350-352-354-370-450-454-472-181200-
...C-MAN and Buoy Observations...

STATION/POSITION TIME  TEMP    WIND        PRES    WAVE   SWELL
                       AIR SEA DIR/SP/G            HT/PER HT/PER/DIR
                 (UTC) (F)     (DEG/KT/KT) (MB)    (FT/S) (FT/S/D)
Buoy 41004       1050   70 73  250/ 17/ 19 1021.6R   3/ 4   2/130/10
Buoy 41008       0950   60 59  200/  6/  6 1021.7    1/10   2/ 90/10
Folly Beach CMAN 1000   57     220/  8/  8 1022.0F
Capers Nearshore NOT AVBL


STATION/POSITION TIME  TEMP    WIND        PRES    WAVE   SWELL
                       AIR SEA DIR/SP/G            HT/PER HT/PER/DIR
                 (UTC) (F)     (DEG/KT/KT) (MB)    (FT/S) (FT/S/D)
5E St. Marys GA  1030      61                N/A     2/10
Frying Pan Buoy  1050   65 67  200/  6/  6 1021.4R   2/ 4   2/140/10
Buoy 41025       1050   62 72  290/ 16/ 17 1021.6R   2/10   2/110/10
Cape Lookout NC  1000          260/  1/  1 1021.9R
Buoy 41002       0950   71 74  230/ 10/ 12 1022.6    2/ 9   2/ 80/ 9
Buoy 41010       NOT AVBL
St Augustine FL  1100   63 65  210/  4/  5 1022.6R


$$



USA.gov is the U.S. government's official web portal to all federal, state and local government web resources and services.